contact:dominique.lefevre@mio.osupytheas.fr, maurice.libes@osupytheas.fr, didier.mallarino@osupytheas.fr
Project:EMSO http://www.emso-fr.org/EMSO-France
Depth: 2436.0 m
Title:EMSO Ligure Ouest : Data MII capteur MICROCAT
DateTime_Computer,Latitude,Longitude,Temperature,Conductivity,Pressure,DateTime_Instrument
DateTime_Computer,Latitude,Longitude,degC,S m-1,dbar,DateTime_Instrument
2023-01-16T00:00:03Z,42.805,6.029,13.3034,4.60092,2470.637,2023-1-16T02:06:21Z
2023-01-16T00:03:06Z,42.805,6.029,13.3040,4.60107,2470.646,2023-1-16T02:09:24Z
2023-01-16T00:06:09Z,42.805,6.029,13.3039,4.60097,2470.624,2023-1-16T02:12:27Z
2023-01-16T00:09:12Z,42.805,6.029,13.3037,4.60094,2470.624,2023-1-16T02:15:30Z
2023-01-16T00:12:16Z,42.805,6.029,13.3043,4.60097,2470.624,2023-1-16T02:18:33Z
2023-01-16T00:15:19Z,42.805,6.029,13.3034,4.60092,2470.646,2023-1-16T02:21:37Z
2023-01-16T00:18:22Z,42.805,6.029,13.3044,4.60099,2470.614,2023-1-16T02:24:40Z
2023-01-16T00:21:25Z,42.805,6.029,13.3036,4.60079,2470.637,2023-1-16T02:27:43Z
2023-01-16T00:24:28Z,42.805,6.029,13.3036,4.60086,2470.637,2023-1-16T02:30:46Z
2023-01-16T00:27:31Z,42.805,6.029,13.3036,4.60104,2470.637,2023-1-16T02:33:49Z
2023-01-16T00:30:34Z,42.805,6.029,13.3036,4.60091,2470.637,2023-1-16T02:36:52Z
2023-01-16T00:33:37Z,42.805,6.029,13.3027,4.60090,2470.624,2023-1-16T02:39:55Z
2023-01-16T00:36:40Z,42.805,6.029,13.3036,4.60099,2470.661,2023-1-16T02:42:58Z
2023-01-16T00:39:43Z,42.805,6.029,13.3034,4.60116,2470.637,2023-1-16T02:46:01Z
2023-01-16T00:42:46Z,42.805,6.029,13.3034,4.60111,2470.624,2023-1-16T02:49:04Z
2023-01-16T00:45:50Z,42.805,6.029,13.3039,4.60088,2470.637,2023-1-16T02:52:07Z
2023-01-16T00:48:53Z,42.805,6.029,13.3039,4.60082,2470.624,2023-1-16T02:55:10Z
2023-01-16T00:51:56Z,42.805,6.029,13.3037,4.60097,2470.646,2023-1-16T02:58:14Z
2023-01-16T00:54:59Z,42.805,6.029,13.3039,4.60105,2470.624,2023-1-16T03:01:17Z
2023-01-16T00:58:02Z,42.805,6.029,13.3031,4.60087,2470.637,2023-1-16T03:04:20Z
2023-01-16T01:01:05Z,42.805,6.029,13.3022,4.60085,2470.637,2023-1-16T03:07:23Z
2023-01-16T01:04:08Z,42.805,6.029,13.3032,4.60093,2470.624,2023-1-16T03:10:26Z
2023-01-16T01:07:11Z,42.805,6.029,13.3036,4.60084,2470.624,2023-1-16T03:13:29Z
2023-01-16T01:10:14Z,42.805,6.029,13.3034,4.60114,2470.646,2023-1-16T03:16:32Z
2023-01-16T01:13:17Z,42.805,6.029,13.3026,4.60097,2470.661,2023-1-16T03:19:35Z
2023-01-16T01:16:20Z,42.805,6.029,13.3031,4.60089,2470.637,2023-1-16T03:22:38Z
2023-01-16T01:19:23Z,42.805,6.029,13.3032,4.60081,2470.624,2023-1-16T03:25:41Z
2023-01-16T01:22:27Z,42.805,6.029,13.3028,4.60097,2470.614,2023-1-16T03:28:44Z
2023-01-16T01:25:30Z,42.805,6.029,13.3029,4.60091,2470.614,2023-1-16T03:31:48Z
2023-01-16T01:28:33Z,42.805,6.029,13.3039,4.60099,2470.637,2023-1-16T03:34:51Z
2023-01-16T01:31:36Z,42.805,6.029,13.3037,4.60079,2470.624,2023-1-16T03:37:54Z
2023-01-16T01:34:39Z,42.805,6.029,13.3046,4.60134,2470.624,2023-1-16T03:40:57Z
2023-01-16T01:37:42Z,42.805,6.029,13.3031,4.60117,2470.624,2023-1-16T03:44:00Z
2023-01-16T01:40:45Z,42.805,6.029,13.3041,4.60090,2470.624,2023-1-16T03:47:03Z
2023-01-16T01:43:48Z,42.805,6.029,13.3036,4.60084,2470.624,2023-1-16T03:50:06Z
2023-01-16T01:46:51Z,42.805,6.029,13.3032,4.60114,2470.637,2023-1-16T03:53:09Z
2023-01-16T01:49:54Z,42.805,6.029,13.3034,4.60098,2470.646,2023-1-16T03:56:12Z
2023-01-16T01:52:57Z,42.805,6.029,13.3034,4.60090,2470.637,2023-1-16T03:59:15Z
2023-01-16T01:56:01Z,42.805,6.029,13.3025,4.60100,2470.646,2023-1-16T04:02:18Z
2023-01-16T01:59:04Z,42.805,6.029,13.3036,4.60092,2470.614,2023-1-16T04:05:22Z
2023-01-16T02:02:07Z,42.805,6.029,13.3038,4.60115,2470.661,2023-1-16T04:08:25Z
2023-01-16T02:05:10Z,42.805,6.029,13.3040,4.60091,2470.624,2023-1-16T04:11:28Z
2023-01-16T02:08:13Z,42.805,6.029,13.3034,4.60092,2470.646,2023-1-16T04:14:31Z
2023-01-16T02:11:16Z,42.805,6.029,13.3033,4.60122,2470.646,2023-1-16T04:17:34Z
2023-01-16T02:14:19Z,42.805,6.029,13.3026,4.60100,2470.637,2023-1-16T04:20:37Z
2023-01-16T02:17:22Z,42.805,6.029,13.3023,4.60107,2470.637,2023-1-16T04:23:40Z
2023-01-16T02:20:25Z,42.805,6.029,13.3030,4.60099,2470.577,2023-1-16T04:26:43Z
2023-01-16T02:23:28Z,42.805,6.029,13.3023,4.60087,2470.624,2023-1-16T04:29:46Z
2023-01-16T02:26:31Z,42.805,6.029,13.3026,4.60104,2470.624,2023-1-16T04:32:49Z
2023-01-16T02:29:34Z,42.805,6.029,13.3031,4.60124,2470.624,2023-1-16T04:35:52Z
2023-01-16T02:32:38Z,42.805,6.029,13.3037,4.60102,2470.577,2023-1-16T04:38:55Z
2023-01-16T02:35:41Z,42.805,6.029,13.3025,4.60099,2470.6,2023-1-16T04:41:59Z
2023-01-16T02:38:44Z,42.805,6.029,13.3021,4.60087,2470.6,2023-1-16T04:45:02Z
2023-01-16T02:41:47Z,42.805,6.029,13.3023,4.60094,2470.637,2023-1-16T04:48:05Z
2023-01-16T02:44:50Z,42.805,6.029,13.3029,4.60102,2470.661,2023-1-16T04:51:08Z
2023-01-16T02:47:53Z,42.805,6.029,13.3018,4.60087,2470.614,2023-1-16T04:54:11Z
2023-01-16T02:50:56Z,42.805,6.029,13.3024,4.60096,2470.624,2023-1-16T04:57:14Z
2023-01-16T02:53:59Z,42.805,6.029,13.3021,4.60115,2470.614,2023-1-16T05:00:17Z
2023-01-16T02:57:02Z,42.805,6.029,13.3024,4.60106,2470.614,2023-1-16T05:03:20Z
2023-01-16T03:00:05Z,42.805,6.029,13.3046,4.60121,2470.6,2023-1-16T05:06:23Z
2023-01-16T03:03:08Z,42.805,6.029,13.3032,4.60119,2470.6,2023-1-16T05:09:26Z
2023-01-16T03:06:11Z,42.805,6.029,13.3026,4.60092,2470.624,2023-1-16T05:12:29Z
2023-01-16T03:09:15Z,42.805,6.029,13.3026,4.60100,2470.6,2023-1-16T05:15:33Z
2023-01-16T03:12:18Z,42.805,6.029,13.3021,4.60106,2470.6,2023-1-16T05:18:36Z
2023-01-16T03:15:21Z,42.805,6.029,13.3023,4.60088,2470.637,2023-1-16T05:21:39Z
2023-01-16T03:18:24Z,42.805,6.029,13.3020,4.60082,2470.624,2023-1-16T05:24:42Z
2023-01-16T03:21:27Z,42.805,6.029,13.3024,4.60081,2470.61,2023-1-16T05:27:45Z
2023-01-16T03:24:30Z,42.805,6.029,13.3021,4.60093,2470.6,2023-1-16T05:30:48Z
2023-01-16T03:27:33Z,42.805,6.029,13.3021,4.60092,2470.6,2023-1-16T05:33:51Z
2023-01-16T03:30:36Z,42.805,6.029,13.3023,4.60099,2470.6,2023-1-16T05:36:54Z
2023-01-16T03:33:39Z,42.805,6.029,13.3024,4.60098,2470.6,2023-1-16T05:39:57Z
2023-01-16T03:36:42Z,42.805,6.029,13.3026,4.60093,2470.614,2023-1-16T05:43:00Z
2023-01-16T03:39:45Z,42.805,6.029,13.3018,4.60105,2470.6,2023-1-16T05:46:03Z
2023-01-16T03:42:48Z,42.805,6.029,13.3034,4.60102,2470.6,2023-1-16T05:49:06Z
2023-01-16T03:45:52Z,42.805,6.029,13.3024,4.60108,2470.624,2023-1-16T05:52:10Z
2023-01-16T03:48:55Z,42.805,6.029,13.3024,4.60115,2470.567,2023-1-16T05:55:13Z
2023-01-16T03:51:58Z,42.805,6.029,13.3022,4.60123,2470.577,2023-1-16T05:58:16Z
2023-01-16T03:55:01Z,42.805,6.029,13.3022,4.60095,2470.637,2023-1-16T06:01:19Z
2023-01-16T03:58:04Z,42.805,6.029,13.3021,4.60098,2470.614,2023-1-16T06:04:22Z
2023-01-16T04:01:07Z,42.805,6.029,13.3026,4.60097,2470.624,2023-1-16T06:07:25Z
2023-01-16T04:04:10Z,42.805,6.029,13.3022,4.60099,2470.637,2023-1-16T06:10:28Z
2023-01-16T04:07:13Z,42.805,6.029,13.3021,4.60097,2470.6,2023-1-16T06:13:31Z
2023-01-16T04:10:16Z,42.805,6.029,13.3024,4.60089,2470.6,2023-1-16T06:16:34Z
2023-01-16T04:13:19Z,42.805,6.029,13.3026,4.60099,2470.6,2023-1-16T06:19:37Z
2023-01-16T04:16:22Z,42.805,6.029,13.3019,4.60095,2470.591,2023-1-16T06:22:40Z
2023-01-16T04:19:26Z,42.805,6.029,13.3024,4.60102,2470.624,2023-1-16T06:25:44Z
2023-01-16T04:22:29Z,42.805,6.029,13.3018,4.60088,2470.6,2023-1-16T06:28:47Z
2023-01-16T04:25:32Z,42.805,6.029,13.3031,4.60107,2470.614,2023-1-16T06:31:50Z
2023-01-16T04:28:35Z,42.805,6.029,13.3029,4.60110,2470.577,2023-1-16T06:34:53Z
2023-01-16T04:31:38Z,42.805,6.029,13.3035,4.60102,2470.6,2023-1-16T06:37:56Z
2023-01-16T04:34:41Z,42.805,6.029,13.3025,4.60103,2470.614,2023-1-16T06:40:59Z
2023-01-16T04:37:44Z,42.805,6.029,13.3023,4.60108,2470.577,2023-1-16T06:44:02Z
2023-01-16T04:40:47Z,42.805,6.029,13.3032,4.60104,2470.637,2023-1-16T06:47:05Z
2023-01-16T04:43:50Z,42.805,6.029,13.3025,4.60101,2470.6,2023-1-16T06:50:08Z
2023-01-16T04:46:53Z,42.805,6.029,13.3021,4.60098,2470.577,2023-1-16T06:53:11Z
2023-01-16T04:49:56Z,42.805,6.029,13.3030,4.60090,2470.624,2023-1-16T06:56:14Z
2023-01-16T04:52:59Z,42.805,6.029,13.3024,4.60109,2470.586,2023-1-16T06:59:18Z
2023-01-16T04:56:03Z,42.805,6.029,13.3024,4.60097,2470.591,2023-1-16T07:02:21Z
2023-01-16T04:59:06Z,42.805,6.029,13.3026,4.60111,2470.577,2023-1-16T07:05:24Z
2023-01-16T05:02:09Z,42.805,6.029,13.3026,4.60093,2470.553,2023-1-16T07:08:27Z
2023-01-16T05:05:12Z,42.805,6.029,13.3026,4.60099,2470.6,2023-1-16T07:11:30Z
2023-01-16T05:08:15Z,42.805,6.029,13.3032,4.60091,2470.614,2023-1-16T07:14:33Z
2023-01-16T05:11:18Z,42.805,6.029,13.3027,4.60107,2470.614,2023-1-16T07:17:36Z
2023-01-16T05:14:21Z,42.805,6.029,13.3026,4.60113,2470.591,2023-1-16T07:20:39Z
2023-01-16T05:17:24Z,42.805,6.029,13.3029,4.60096,2470.577,2023-1-16T07:23:42Z
2023-01-16T05:20:27Z,42.805,6.029,13.3023,4.60093,2470.591,2023-1-16T07:26:45Z
2023-01-16T05:23:30Z,42.805,6.029,13.3029,4.60109,2470.567,2023-1-16T07:29:48Z
2023-01-16T05:26:33Z,42.805,6.029,13.3025,4.60103,2470.6,2023-1-16T07:32:52Z
2023-01-16T05:29:37Z,42.805,6.029,13.3028,4.60106,2470.553,2023-1-16T07:35:55Z
2023-01-16T05:32:40Z,42.805,6.029,13.3031,4.60104,2470.577,2023-1-16T07:38:58Z
2023-01-16T05:35:43Z,42.805,6.029,13.3034,4.60107,2470.591,2023-1-16T07:42:01Z
2023-01-16T05:38:46Z,42.805,6.029,13.3043,4.60112,2470.567,2023-1-16T07:45:04Z
2023-01-16T05:41:49Z,42.805,6.029,13.3026,4.60109,2470.577,2023-1-16T07:48:07Z
2023-01-16T05:44:52Z,42.805,6.029,13.3033,4.60115,2470.577,2023-1-16T07:51:10Z
2023-01-16T05:47:55Z,42.805,6.029,13.3026,4.60111,2470.553,2023-1-16T07:54:13Z
2023-01-16T05:50:58Z,42.805,6.029,13.3026,4.60103,2470.614,2023-1-16T07:57:16Z
2023-01-16T05:54:01Z,42.805,6.029,13.3029,4.60103,2470.591,2023-1-16T08:00:19Z
2023-01-16T05:57:04Z,42.805,6.029,13.3026,4.60115,2470.553,2023-1-16T08:03:22Z
2023-01-16T06:00:07Z,42.805,6.029,13.3023,4.60099,2470.591,2023-1-16T08:06:26Z
2023-01-16T06:03:11Z,42.805,6.029,13.3021,4.60110,2470.577,2023-1-16T08:09:29Z
2023-01-16T06:06:14Z,42.805,6.029,13.3029,4.60097,2470.553,2023-1-16T08:12:32Z
2023-01-16T06:09:17Z,42.805,6.029,13.3024,4.60102,2470.544,2023-1-16T08:15:35Z
2023-01-16T06:12:20Z,42.805,6.029,13.3026,4.60102,2470.614,2023-1-16T08:18:38Z
2023-01-16T06:15:23Z,42.805,6.029,13.3026,4.60104,2470.553,2023-1-16T08:21:41Z
2023-01-16T06:18:26Z,42.805,6.029,13.3026,4.60102,2470.53,2023-1-16T08:24:44Z
2023-01-16T06:21:29Z,42.805,6.029,13.3030,4.60110,2470.577,2023-1-16T08:27:47Z
2023-01-16T06:24:32Z,42.805,6.029,13.3029,4.60112,2470.577,2023-1-16T08:30:50Z
2023-01-16T06:27:35Z,42.805,6.029,13.3020,4.60110,2470.577,2023-1-16T08:33:53Z
2023-01-16T06:30:38Z,42.805,6.029,13.3022,4.60084,2470.553,2023-1-16T08:36:56Z
2023-01-16T06:33:41Z,42.805,6.029,13.3024,4.60099,2470.567,2023-1-16T08:39:59Z
2023-01-16T06:36:44Z,42.805,6.029,13.3021,4.60084,2470.53,2023-1-16T08:43:03Z
2023-01-16T06:39:48Z,42.805,6.029,13.3020,4.60100,2470.591,2023-1-16T08:46:06Z
2023-01-16T06:42:51Z,42.805,6.029,13.3023,4.60109,2470.553,2023-1-16T08:49:09Z
2023-01-16T06:45:54Z,42.805,6.029,13.3031,4.60104,2470.553,2023-1-16T08:52:12Z
2023-01-16T06:48:57Z,42.805,6.029,13.3035,4.60128,2470.553,2023-1-16T08:55:15Z
2023-01-16T06:52:00Z,42.805,6.029,13.3036,4.60135,2470.567,2023-1-16T08:58:18Z
2023-01-16T06:55:03Z,42.805,6.029,13.3029,4.60107,2470.53,2023-1-16T09:01:21Z
2023-01-16T06:58:06Z,42.805,6.029,13.3026,4.60099,2470.553,2023-1-16T09:04:24Z
2023-01-16T07:01:09Z,42.805,6.029,13.3032,4.60108,2470.591,2023-1-16T09:07:27Z
2023-01-16T07:04:12Z,42.805,6.029,13.3025,4.60089,2470.53,2023-1-16T09:10:30Z
2023-01-16T07:07:15Z,42.805,6.029,13.3034,4.60119,2470.553,2023-1-16T09:13:33Z
2023-01-16T07:10:18Z,42.805,6.029,13.3044,4.60117,2470.53,2023-1-16T09:16:37Z
2023-01-16T07:13:21Z,42.805,6.029,13.3023,4.60107,2470.53,2023-1-16T09:19:40Z
2023-01-16T07:16:25Z,42.805,6.029,13.3029,4.60111,2470.567,2023-1-16T09:22:43Z
2023-01-16T07:19:28Z,42.805,6.029,13.3022,4.60088,2470.53,2023-1-16T09:25:46Z
2023-01-16T07:22:31Z,42.805,6.029,13.3025,4.60084,2470.507,2023-1-16T09:28:49Z
2023-01-16T07:25:34Z,42.805,6.029,13.3028,4.60098,2470.553,2023-1-16T09:31:52Z
2023-01-16T07:28:37Z,42.805,6.029,13.3023,4.60102,2470.553,2023-1-16T09:34:55Z
2023-01-16T07:31:40Z,42.805,6.029,13.3024,4.60109,2470.567,2023-1-16T09:37:58Z
2023-01-16T07:34:43Z,42.805,6.029,13.3024,4.60099,2470.567,2023-1-16T09:41:01Z
2023-01-16T07:37:46Z,42.805,6.029,13.3021,4.60091,2470.544,2023-1-16T09:44:04Z
2023-01-16T07:40:49Z,42.805,6.029,13.3039,4.60112,2470.53,2023-1-16T09:47:07Z
2023-01-16T07:43:52Z,42.805,6.029,13.3023,4.60108,2470.567,2023-1-16T09:50:10Z
2023-01-16T07:46:55Z,42.805,6.029,13.3026,4.60102,2470.567,2023-1-16T09:53:14Z
2023-01-16T07:49:58Z,42.805,6.029,13.3025,4.60109,2470.53,2023-1-16T09:56:17Z
2023-01-16T07:53:02Z,42.805,6.029,13.3031,4.60119,2470.544,2023-1-16T09:59:20Z
2023-01-16T07:56:05Z,42.805,6.029,13.3034,4.60116,2470.553,2023-1-16T10:02:23Z
2023-01-16T07:59:08Z,42.805,6.029,13.3021,4.60125,2470.567,2023-1-16T10:05:26Z
2023-01-16T08:02:11Z,42.805,6.029,13.3036,4.60124,2470.544,2023-1-16T10:08:29Z
2023-01-16T08:05:14Z,42.805,6.029,13.3027,4.60102,2470.539,2023-1-16T10:11:32Z
2023-01-16T08:08:17Z,42.805,6.029,13.3021,4.60108,2470.553,2023-1-16T10:14:35Z
2023-01-16T08:11:20Z,42.805,6.029,13.3037,4.60134,2470.553,2023-1-16T10:17:38Z
2023-01-16T08:14:23Z,42.805,6.029,13.3028,4.60109,2470.544,2023-1-16T10:20:41Z
2023-01-16T08:17:26Z,42.805,6.029,13.3027,4.60112,2470.53,2023-1-16T10:23:44Z
2023-01-16T08:20:29Z,42.805,6.029,13.3031,4.60107,2470.553,2023-1-16T10:26:48Z
2023-01-16T08:23:32Z,42.805,6.029,13.3023,4.60110,2470.53,2023-1-16T10:29:51Z
2023-01-16T08:26:36Z,42.805,6.029,13.3026,4.60097,2470.53,2023-1-16T10:32:54Z
2023-01-16T08:29:39Z,42.805,6.029,13.3028,4.60114,2470.53,2023-1-16T10:35:57Z
2023-01-16T08:32:42Z,42.805,6.029,13.3040,4.60123,2470.544,2023-1-16T10:39:00Z
2023-01-16T08:35:45Z,42.805,6.029,13.3031,4.60114,2470.516,2023-1-16T10:42:03Z
2023-01-16T08:38:48Z,42.805,6.029,13.3028,4.60104,2470.544,2023-1-16T10:45:06Z
2023-01-16T08:41:51Z,42.805,6.029,13.3026,4.60095,2470.544,2023-1-16T10:48:09Z
2023-01-16T08:44:54Z,42.805,6.029,13.3031,4.60110,2470.553,2023-1-16T10:51:12Z
2023-01-16T08:47:57Z,42.805,6.029,13.3031,4.60123,2470.53,2023-1-16T10:54:15Z
2023-01-16T08:51:00Z,42.805,6.029,13.3031,4.60119,2470.53,2023-1-16T10:57:18Z
2023-01-16T08:54:03Z,42.805,6.029,13.3034,4.60124,2470.544,2023-1-16T11:00:22Z
2023-01-16T08:57:06Z,42.805,6.029,13.3027,4.60131,2470.53,2023-1-16T11:03:25Z
2023-01-16T09:00:10Z,42.805,6.029,13.3027,4.60112,2470.53,2023-1-16T11:06:28Z
2023-01-16T09:03:13Z,42.805,6.029,13.3025,4.60105,2470.591,2023-1-16T11:09:31Z
2023-01-16T09:06:16Z,42.805,6.029,13.3034,4.60112,2470.567,2023-1-16T11:12:34Z
2023-01-16T09:09:19Z,42.805,6.029,13.3025,4.60117,2470.614,2023-1-16T11:15:37Z
2023-01-16T09:12:22Z,42.805,6.029,13.3034,4.60113,2470.577,2023-1-16T11:18:40Z
2023-01-16T09:15:25Z,42.805,6.029,13.3028,4.60107,2470.553,2023-1-16T11:21:43Z
2023-01-16T09:18:28Z,42.805,6.029,13.3029,4.60104,2470.577,2023-1-16T11:24:46Z
2023-01-16T09:21:31Z,42.805,6.029,13.3023,4.60111,2470.577,2023-1-16T11:27:49Z
2023-01-16T09:24:34Z,42.805,6.029,13.3029,4.60104,2470.553,2023-1-16T11:30:52Z
2023-01-16T09:27:37Z,42.805,6.029,13.3034,4.60110,2470.591,2023-1-16T11:33:56Z
2023-01-16T09:30:40Z,42.805,6.029,13.3029,4.60112,2470.577,2023-1-16T11:36:59Z
2023-01-16T09:33:44Z,42.805,6.029,13.3036,4.60114,2470.553,2023-1-16T11:40:02Z
2023-01-16T09:36:47Z,42.805,6.029,13.3025,4.60122,2470.567,2023-1-16T11:43:05Z
2023-01-16T09:39:50Z,42.805,6.029,13.3028,4.60114,2470.591,2023-1-16T11:46:08Z
2023-01-16T09:42:53Z,42.805,6.029,13.3035,4.60122,2470.567,2023-1-16T11:49:11Z
2023-01-16T09:45:56Z,42.805,6.029,13.3034,4.60102,2470.614,2023-1-16T11:52:14Z
2023-01-16T09:48:59Z,42.805,6.029,13.3030,4.60112,2470.614,2023-1-16T11:55:17Z
2023-01-16T09:52:02Z,42.805,6.029,13.3031,4.60103,2470.553,2023-1-16T11:58:20Z
2023-01-16T09:55:05Z,42.805,6.029,13.3027,4.60097,2470.567,2023-1-16T12:01:23Z
2023-01-16T09:58:08Z,42.805,6.029,13.3032,4.60092,2470.544,2023-1-16T12:04:26Z
2023-01-16T10:01:11Z,42.805,6.029,13.3029,4.60107,2470.553,2023-1-16T12:07:30Z
2023-01-16T10:04:14Z,42.805,6.029,13.3028,4.60108,2470.577,2023-1-16T12:10:33Z
2023-01-16T10:07:18Z,42.805,6.029,13.3034,4.60117,2470.577,2023-1-16T12:13:36Z
2023-01-16T10:10:21Z,42.805,6.029,13.3044,4.60107,2470.553,2023-1-16T12:16:39Z
2023-01-16T10:13:24Z,42.805,6.029,13.3031,4.60108,2470.6,2023-1-16T12:19:42Z
2023-01-16T10:16:27Z,42.805,6.029,13.3034,4.60100,2470.577,2023-1-16T12:22:45Z
2023-01-16T10:19:30Z,42.805,6.029,13.3027,4.60107,2470.567,2023-1-16T12:25:48Z
2023-01-16T10:22:33Z,42.805,6.029,13.3037,4.60117,2470.614,2023-1-16T12:28:51Z
2023-01-16T10:25:36Z,42.805,6.029,13.3032,4.60114,2470.6,2023-1-16T12:31:54Z
2023-01-16T10:28:39Z,42.805,6.029,13.3042,4.60125,2470.577,2023-1-16T12:34:57Z
2023-01-16T10:31:42Z,42.805,6.029,13.3026,4.60125,2470.591,2023-1-16T12:38:01Z
2023-01-16T10:34:45Z,42.805,6.029,13.3026,4.60097,2470.577,2023-1-16T12:41:04Z
2023-01-16T10:37:48Z,42.805,6.029,13.3034,4.60096,2470.614,2023-1-16T12:44:07Z
2023-01-16T10:40:52Z,42.805,6.029,13.3023,4.60116,2470.6,2023-1-16T12:47:10Z
2023-01-16T10:43:55Z,42.805,6.029,13.3030,4.60103,2470.591,2023-1-16T12:50:13Z
2023-01-16T10:46:58Z,42.805,6.029,13.3037,4.60111,2470.6,2023-1-16T12:53:16Z
2023-01-16T10:50:01Z,42.805,6.029,13.3038,4.60146,2470.614,2023-1-16T12:56:19Z
2023-01-16T10:53:04Z,42.805,6.029,13.3027,4.60114,2470.637,2023-1-16T12:59:22Z
2023-01-16T10:56:07Z,42.805,6.029,13.3030,4.60125,2470.591,2023-1-16T13:02:25Z
2023-01-16T10:59:10Z,42.805,6.029,13.3035,4.60110,2470.6,2023-1-16T13:05:28Z
2023-01-16T11:02:13Z,42.805,6.029,13.3039,4.60130,2470.6,2023-1-16T13:08:31Z
2023-01-16T11:05:16Z,42.805,6.029,13.3029,4.60091,2470.6,2023-1-16T13:11:34Z
2023-01-16T11:08:19Z,42.805,6.029,13.3026,4.60110,2470.6,2023-1-16T13:14:38Z
2023-01-16T11:11:22Z,42.805,6.029,13.3033,4.60125,2470.614,2023-1-16T13:17:41Z
2023-01-16T11:14:26Z,42.805,6.029,13.3027,4.60108,2470.577,2023-1-16T13:20:44Z
2023-01-16T11:17:29Z,42.805,6.029,13.3029,4.60139,2470.624,2023-1-16T13:23:47Z
2023-01-16T11:20:32Z,42.805,6.029,13.3030,4.60095,2470.586,2023-1-16T13:26:50Z
2023-01-16T11:23:35Z,42.805,6.029,13.3033,4.60119,2470.614,2023-1-16T13:29:53Z
2023-01-16T11:26:38Z,42.805,6.029,13.3026,4.60114,2470.614,2023-1-16T13:32:56Z
2023-01-16T11:29:41Z,42.805,6.029,13.3019,4.60102,2470.6,2023-1-16T13:35:59Z
2023-01-16T11:32:44Z,42.805,6.029,13.3031,4.60106,2470.6,2023-1-16T13:39:02Z
2023-01-16T11:35:47Z,42.805,6.029,13.3032,4.60120,2470.6,2023-1-16T13:42:05Z
2023-01-16T11:38:50Z,42.805,6.029,13.3024,4.60108,2470.6,2023-1-16T13:45:09Z
2023-01-16T11:41:53Z,42.805,6.029,13.3028,4.60132,2470.624,2023-1-16T13:48:12Z
2023-01-16T11:44:56Z,42.805,6.029,13.3044,4.60133,2470.624,2023-1-16T13:51:15Z
2023-01-16T11:48:00Z,42.805,6.029,13.3032,4.60111,2470.591,2023-1-16T13:54:18Z
2023-01-16T11:51:03Z,42.805,6.029,13.3034,4.60107,2470.637,2023-1-16T13:57:21Z
2023-01-16T11:54:06Z,42.805,6.029,13.3026,4.60106,2470.624,2023-1-16T14:00:24Z
2023-01-16T11:57:09Z,42.805,6.029,13.3029,4.60118,2470.646,2023-1-16T14:03:27Z
2023-01-16T12:00:12Z,42.805,6.029,13.3037,4.60119,2470.6,2023-1-16T14:06:30Z
2023-01-16T12:03:15Z,42.805,6.029,13.3025,4.60132,2470.614,2023-1-16T14:09:33Z
2023-01-16T12:06:18Z,42.805,6.029,13.3025,4.60106,2470.6,2023-1-16T14:12:36Z
2023-01-16T12:09:21Z,42.805,6.029,13.3024,4.60099,2470.614,2023-1-16T14:15:39Z
2023-01-16T12:12:24Z,42.805,6.029,13.3036,4.60150,2470.614,2023-1-16T14:18:43Z
2023-01-16T12:15:27Z,42.805,6.029,13.3039,4.60135,2470.614,2023-1-16T14:21:46Z
2023-01-16T12:18:30Z,42.805,6.029,13.3032,4.60104,2470.6,2023-1-16T14:24:49Z
2023-01-16T12:21:34Z,42.805,6.029,13.3030,4.60133,2470.591,2023-1-16T14:27:52Z
2023-01-16T12:24:37Z,42.805,6.029,13.3034,4.60119,2470.637,2023-1-16T14:30:55Z
2023-01-16T12:27:40Z,42.805,6.029,13.3034,4.60126,2470.624,2023-1-16T14:33:58Z
2023-01-16T12:30:43Z,42.805,6.029,13.3030,4.60125,2470.637,2023-1-16T14:37:01Z
2023-01-16T12:33:46Z,42.805,6.029,13.3038,4.60150,2470.614,2023-1-16T14:40:04Z
2023-01-16T12:36:49Z,42.805,6.029,13.3036,4.60132,2470.614,2023-1-16T14:43:07Z
2023-01-16T12:39:52Z,42.805,6.029,13.3035,4.60130,2470.614,2023-1-16T14:46:10Z
2023-01-16T12:42:55Z,42.805,6.029,13.3031,4.60147,2470.614,2023-1-16T14:49:13Z
2023-01-16T12:45:58Z,42.805,6.029,13.3029,4.60121,2470.6,2023-1-16T14:52:17Z
2023-01-16T12:49:01Z,42.805,6.029,13.3038,4.60149,2470.614,2023-1-16T14:55:20Z
2023-01-16T12:52:04Z,42.805,6.029,13.3036,4.60132,2470.637,2023-1-16T14:58:23Z
2023-01-16T12:55:08Z,42.805,6.029,13.3036,4.60138,2470.624,2023-1-16T15:01:26Z
2023-01-16T12:58:11Z,42.805,6.029,13.3046,4.60122,2470.614,2023-1-16T15:04:29Z
2023-01-16T13:01:14Z,42.805,6.029,13.3040,4.60131,2470.577,2023-1-16T15:07:32Z
2023-01-16T13:04:17Z,42.805,6.029,13.3038,4.60152,2470.6,2023-1-16T15:10:35Z
2023-01-16T13:07:20Z,42.805,6.029,13.3044,4.60141,2470.637,2023-1-16T15:13:38Z
2023-01-16T13:10:23Z,42.805,6.029,13.3026,4.60126,2470.6,2023-1-16T15:16:41Z
2023-01-16T13:13:26Z,42.805,6.029,13.3034,4.60130,2470.6,2023-1-16T15:19:44Z
2023-01-16T13:16:29Z,42.805,6.029,13.3039,4.60137,2470.577,2023-1-16T15:22:48Z
2023-01-16T13:19:32Z,42.805,6.029,13.3044,4.60143,2470.6,2023-1-16T15:25:51Z
2023-01-16T13:22:35Z,42.805,6.029,13.3042,4.60152,2470.577,2023-1-16T15:28:54Z
2023-01-16T13:25:38Z,42.805,6.029,13.3034,4.60131,2470.614,2023-1-16T15:31:57Z
2023-01-16T13:28:42Z,42.805,6.029,13.3032,4.60140,2470.614,2023-1-16T15:35:00Z
2023-01-16T13:31:45Z,42.805,6.029,13.3031,4.60121,2470.624,2023-1-16T15:38:03Z
2023-01-16T13:34:48Z,42.805,6.029,13.3033,4.60127,2470.637,2023-1-16T15:41:06Z
2023-01-16T13:37:51Z,42.805,6.029,13.3034,4.60139,2470.637,2023-1-16T15:44:09Z
2023-01-16T13:40:54Z,42.805,6.029,13.3038,4.60148,2470.6,2023-1-16T15:47:12Z
2023-01-16T13:43:57Z,42.805,6.029,13.3042,4.60137,2470.577,2023-1-16T15:50:15Z
2023-01-16T13:47:00Z,42.805,6.029,13.3036,4.60147,2470.6,2023-1-16T15:53:18Z
2023-01-16T13:50:03Z,42.805,6.029,13.3041,4.60127,2470.624,2023-1-16T15:56:21Z
2023-01-16T13:53:06Z,42.805,6.029,13.3057,4.60130,2470.591,2023-1-16T15:59:25Z
2023-01-16T13:56:09Z,42.805,6.029,13.3049,4.60119,2470.624,2023-1-16T16:02:28Z
2023-01-16T13:59:12Z,42.805,6.029,13.3039,4.60108,2470.637,2023-1-16T16:05:31Z
2023-01-16T14:02:16Z,42.805,6.029,13.3040,4.60134,2470.6,2023-1-16T16:08:34Z
2023-01-16T14:05:19Z,42.805,6.029,13.3031,4.60116,2470.624,2023-1-16T16:11:37Z
2023-01-16T14:08:22Z,42.805,6.029,13.3042,4.60152,2470.591,2023-1-16T16:14:40Z
2023-01-16T14:11:25Z,42.805,6.029,13.3059,4.60119,2470.637,2023-1-16T16:17:43Z
2023-01-16T14:14:28Z,42.805,6.029,13.3039,4.60130,2470.614,2023-1-16T16:20:46Z
2023-01-16T14:17:31Z,42.805,6.029,13.3036,4.60150,2470.6,2023-1-16T16:23:49Z
2023-01-16T14:20:34Z,42.805,6.029,13.3037,4.60141,2470.591,2023-1-16T16:26:52Z
2023-01-16T14:23:37Z,42.805,6.029,13.3052,4.60110,2470.624,2023-1-16T16:29:56Z
2023-01-16T14:26:40Z,42.805,6.029,13.3048,4.60102,2470.637,2023-1-16T16:32:59Z
2023-01-16T14:29:43Z,42.805,6.029,13.3051,4.60119,2470.637,2023-1-16T16:36:02Z
2023-01-16T14:32:46Z,42.805,6.029,13.3042,4.60104,2470.6,2023-1-16T16:39:05Z
2023-01-16T14:35:50Z,42.805,6.029,13.3037,4.60091,2470.6,2023-1-16T16:42:08Z
2023-01-16T14:38:53Z,42.805,6.029,13.3041,4.60078,2470.614,2023-1-16T16:45:11Z
2023-01-16T14:41:56Z,42.805,6.029,13.3044,4.60110,2470.624,2023-1-16T16:48:14Z
2023-01-16T14:44:59Z,42.805,6.029,13.3036,4.60102,2470.577,2023-1-16T16:51:17Z
2023-01-16T14:48:02Z,42.805,6.029,13.3046,4.60108,2470.591,2023-1-16T16:54:20Z
2023-01-16T14:51:05Z,42.805,6.029,13.3039,4.60125,2470.6,2023-1-16T16:57:23Z
2023-01-16T14:54:08Z,42.805,6.029,13.3049,4.60119,2470.6,2023-1-16T17:00:26Z
2023-01-16T14:57:11Z,42.805,6.029,13.3048,4.60090,2470.6,2023-1-16T17:03:30Z
2023-01-16T15:00:14Z,42.805,6.029,13.3048,4.60089,2470.577,2023-1-16T17:06:33Z
2023-01-16T15:03:17Z,42.805,6.029,13.3029,4.60081,2470.577,2023-1-16T17:09:36Z
2023-01-16T15:06:20Z,42.805,6.029,13.3013,4.60079,2470.637,2023-1-16T17:12:39Z
2023-01-16T15:09:24Z,42.805,6.029,13.3023,4.60069,2470.6,2023-1-16T17:15:42Z
2023-01-16T15:12:27Z,42.805,6.029,13.3018,4.60069,2470.577,2023-1-16T17:18:45Z